Regional Weather Roundup
Issued by NWS Lake Charles, LA

Current Version | Previous Version | Text Only | Print | Product List | Glossary On
Versions: 1 2 3 4 5 6 7 8 9 10 11 12 13 14 15 16 17 18 19 20 21 22 23 24 25 26 27 28
000
ASUS44 KLCH 311910
RWRLCH
RWRLCH
REGIONAL WEATHER ROUNDUP
NATIONAL WEATHER SERVICE LAKE CHARLES LA
200 PM CDT FRI OCT 31 2014

Note: "fair" indicates few or no clouds below 12,000 feet with no
significant weather and/or obstructions to visibility.


ACROSS SOUTHEAST TEXAS

CITY           SKY/WX    TMP DP  RH WIND       PRES   REMARKS
BEAUMONT       SUNNY     78  44  29 N14G24    30.12F
BEAUMONT CITY    N/A     75  46  34 NW16G22   30.13F
ORANGE         CLEAR     74  43  32 NW12G17   30.14F
JASPER         SUNNY     71  43  35 N12G17    30.18F
$$

ACROSS CENTRAL LOUISIANA

CITY           SKY/WX    TMP DP  RH WIND       PRES   REMARKS
LEESVILLE      SUNNY     71  45  40 N12G18    30.13F
FULLERTON      NOT AVBL
ALEXANDRIA INT SUNNY     73  46  38 N14G21    30.10F
ESLER FIELD    SUNNY     71  48  43 N13G20    30.11F
DERIDDER         N/A     72  44  35 N14G20    30.15F
OAKDALE        CLEAR     73  47  39 NW10G16   30.11F
OPELOUSAS        N/A     72  44  36 NW12G21   30.09F
$$

ACROSS SOUTHWEST AND SOUTH CENTRAL LOUISIANA

CITY           SKY/WX    TMP DP  RH WIND       PRES   REMARKS
SULPHUR        CLEAR     76  45  32 NW16      30.12F
LAKE CHARLES   SUNNY     75  45  34 N15G24    30.10F
CHENNAULT INT  SUNNY     73  43  33 NW16G22   30.11F
CAMERON PHI    CLEAR     75  45  33 N14       30.13F
DEQUINCY         N/A     72  45  37 NW9G16    30.13F
JENNINGS         N/A     73  46  37 NW14G21   30.10F
LAFAYETTE      SUNNY     75  40  28 NW15      30.08F
NEW IBERIA     SUNNY     76  44  32 N16G23    30.08F
ABBEVILLE        N/A     75  44  33 NW14G21   30.08F
PATTERSON      SUNNY     73  48  40 NW14      30.08F
SALT POINT       N/A     76  46  34 NW10      30.04F
$$

SELECTED SITES ACROSS THE REGION

CITY           SKY/WX    TMP DP  RH WIND       PRES   REMARKS
HOUSTON BUSH   MOSUNNY   77  43  29 N18       30.17F
HOUSTON HOBBY  MOSUNNY   77  42  28 N15       30.16F
GALVESTON      PTSUNNY   75  50  41 N15       30.15F
COLLEGE STAT   SUNNY     74  41  30 N15G23    30.22F
CONROE         SUNNY     75  41  29 NW18      30.18F
HUNTSVILLE     SUNNY     74  43  32 N13G20    30.21F
LUFKIN         SUNNY     74  44  34 NW9G21    30.19F
SHREVEPORT     MOSUNNY   69  44  40 N18G25    30.18F
MONROE         MOSUNNY   68  46  45 N14G24    30.15S
NATCHEZ MS     MOSUNNY   68  48  49 N13G20    30.09S
BATON ROUGE    SUNNY     73  43  33 NW13G21   30.05F
N.O. INTL ARPT MOSUNNY   76  46  34 NW16G25   30.01F
SLIDELL        SUNNY     76  44  32 N10       29.98F
$$

MARINE REPORTS

STATION/POSITION TIME  TEMP    WIND        PRES    VSBY  WAVE
                       AIR SEA DIR/SP/G                  HT/PER
                 (UTC) (F)     (DEG/KT/KT) (MB)    (MI)  (FT/S)
BUOY 30 S HIGH I 1900   73 76  360/ 14/ 17 1020.2F         2/ 3
SEA RIM ST PARK  1900   74     350/ 14/ 18 1020.6F
PORT ARTHUR      1900      74  360/ 17/ 20 1020.1F
SABINE PASS N    1900   72 73  360/  8/ 18 1020.3F
TEXAS POINT      NOT AVBL
CALCASIEU PASS   1900   72 73  360/ 14/ 18   N/A
LK CHARLES BEACH 1900   72 75              1019.6F
MARSH ISLAND     NOT AVBL
FRESH WATER LOCK 1900   73 74  340/ 17/ 20 1018.3F
AMERADA PASS     1900   72 68  320/  6/ 12 1017.5F
$$



USA.gov is the U.S. government's official web portal to all federal, state and local government web resources and services.